This demonstration page uses our WeatherBlox Daily Observations layout. Learn more.

Left ArrowRight Arrow

39.92423, -83.80882

Hourly Observations for March 22, 2021

Temp ( °F °C ) Dew Point ( °F °C ) Humidity (%) Winds ( mph kmh ) Pressure ( in mb ) Visibility ( mi km ) Precip ( " mm )
12:56 am 00:56 Clear 46 7.8 35 1.7 66 66 ESE 5 7 30.26 1025 10 16 N/A
1:56 am 01:56 Clear 43 6.1 34 1.1 71 71 ESE 7 11 30.26 1025 10 16 N/A
2:56 am 02:56 Clear 45 7.2 34 1.1 66 66 SE 9 15 30.26 1025 10 16 N/A
4:56 am 04:56 Clear 45 7.2 30 -1.1 56 56 SSE 6 9 30.24 1024 10 16 N/A
5:56 am 05:56 Clear 44 6.7 29 -1.7 55 55 SE 8 13 30.24 1024 10 16 N/A
6:56 am 06:56 Clear 43 6.1 29 -1.7 58 58 SSE 7 11 30.25 1024 10 16 N/A
7:56 am 07:56 Sunny 42 5.6 28 -2.2 58 58 SSE 6 9 30.27 1025 10 16 N/A
8:56 am 08:56 Sunny 47 8.3 31 -0.6 54 54 SSE 7 11 30.28 1025 10 16 N/A
9:56 am 09:56 Sunny 53 11.7 32 undefined 45 45 S 9 15 30.27 1025 10 16 N/A
10:56 am 10:56 Sunny 60 15.6 36 2.2 41 41 S 9 15 30.25 1024 10 16 N/A
11:56 am 11:56 Sunny 64 17.8 38 3.3 38 38 S 9 15 30.24 1024 10 16 N/A
12:56 pm 12:56 Sunny 67 19.4 41 5 39 39 S 8 13 30.22 1023 10 16 N/A
1:56 pm 13:56 Partly Cloudy 67 19.4 39 3.9 36 36 S 8 13 30.19 1022 10 16 N/A
2:56 pm 14:56 Mostly Sunny 68 20 38 3.3 33 33 S 9 15 30.15 1021 10 16 N/A
3:56 pm 15:56 Sunny 68 20 37 2.8 32 32 SSE 9 15 30.12 1020 10 16 N/A
4:56 pm 16:56 Sunny 67 19.4 36 2.2 32 32 S 12 19 30.10 1019 10 16 N/A
5:56 pm 17:56 Sunny 66 18.9 37 2.8 34 34 S 10 17 30.09 1019 10 16 N/A
6:56 pm 18:56 Sunny 65 18.3 38 3.3 37 37 S 5 7 30.09 1019 10 16 N/A
7:56 pm 19:56 Clear 61 16.1 38 3.3 43 43 SE 5 7 30.09 1019 10 16 N/A
8:56 pm 20:56 Clear 54 12.2 39 3.9 57 57 ESE 5 7 30.10 1019 10 16 N/A
9:56 pm 21:56 Clear 50 10 38 3.3 63 63 E 6 9 30.10 1019 10 16 N/A
10:56 pm 22:56 Clear 46 7.8 35 1.7 66 66 ESE 6 9 30.11 1020 10 16 N/A
11:56 pm 23:56 Clear 43 6.1 34 1.1 71 71 E 6 9 30.11 1020 10 16 N/A

Powered by AerisWeather